Regional Weather Roundup
Issued by NWS Cleveland, OH

Home | Current Version | Previous Version | Graphics & Text | Print | Product List | Glossary On
Versions: 1 2 3 4 5 6 7 8 9 10 11 12 13 14 15 16 17 18 19 20 21 22 23 24 25 26 27 28 29 30 31 32 33 34 35 36 37 38 39 40 41 42 43 44 45 46 47 48 49 50
000
ASUS41 KCLE 171510
RWRCLE
OHIO REGIONAL WEATHER ROUNDUP
NATIONAL WEATHER SERVICE CLEVELAND, OH
1000 AM EST TUE JAN 17 2017

NOTE: "FAIR" INDICATES FEW OR NO CLOUDS BELOW 12,000 FEET WITH NO
SIGNIFICANT WEATHER AND/OR OBSTRUCTIONS TO VISIBILITY.

OHZ001>008-015>018-024>027-034-035-043-044-171600-
   NORTHWEST OHIO

CITY           SKY/WX    TMP DP  RH WIND       PRES   REMARKS
DEFIANCE       MOSUNNY   52  49  89 SW10      29.79R
FINDLAY        CLOUDY    57  52  83 SW13G23   29.79R
TOLEDO EXPRESS CLOUDY    51  51 100 SW13      29.77R
TOLEDO EXEC    CLOUDY    52  52 100 S12       29.78S
LIMA           CLOUDY    56 N/A N/A SW15      29.82R
$$

OHZ009>014-019>023-028>033-038-089-171600-
   NORTHEAST OHIO

CITY           SKY/WX    TMP DP  RH WIND       PRES   REMARKS
CLE-HOPKINS    CLOUDY    55  50  83 S16G22    29.85F
CLE-LAKEFRONT  CLOUDY    52  50  93 SE10G20   29.82F
CUY CO. ARPT   CLOUDY    54  34  47 SW14      29.85F
LORAIN-ELYRIA  CLOUDY    50  48  93 S10       29.82F
ASHTABULA      CLOUDY    48  48 100 S13       29.87F
AKRON-CANTON   CLOUDY    54  51  90 S20       29.86F
WOOSTER        CLOUDY    53  51  93 S13       29.86F
MANSFIELD      CLOUDY    57  54  89 S18G29    29.83S
YOUNGSTOWN     LGT RAIN  49  47  93 S9        29.90F FOG
$$

OHZ042-051>053-060>062-070>072-077>081-171600-
  SOUTHWEST OHIO

CITY           SKY/WX    TMP DP  RH WIND       PRES   REMARKS
CINC-COVINGTON CLOUDY    60  56  86 SW16G22   29.90S
CINC-LUNKEN    CLOUDY    61  57  87 SW15      29.91S
HAMILTON       PTSUNNY   62  57  83 SW10G17   29.90R
DAYTON         LGT RAIN  55  53  93 W16       29.88R
WRIGHT-PAT AFB MOSUNNY   60  58  96 SW16G31   29.85F
DAYTON GENERAL CLOUDY    59  55  87 SW14G23   29.87S
WILMINGTON     MOSUNNY   58  56  93 SW17G25   29.88F
$$

OHZ036-037-039>041-045>050-054>059-063>069-073>076-082>088-171600-
  CENTRAL AND SOUTHEAST OHIO

CITY           SKY/WX    TMP DP  RH WIND       PRES   REMARKS
COLUMBUS       PTSUNNY   60  55  83 S13G25    29.87F
OSU AIRPORT    CLOUDY    58  56  93 S12       29.87R
BOLTON FIELD   MOSUNNY   57  57 100 SW15      29.88S
RICKENBACK AFB   N/A     56  56 100 S15       29.87F
NEWARK         CLOUDY    58  54  86 S13G21    29.87F
MARION         LGT RAIN  57  54  89 SW17G28   29.83F
LANCASTER      MOSUNNY   61  56  83 S13       29.89F
ZANESVILLE     CLOUDY    57  54  89 S13       29.91F
NEW PHILLY     NOT AVBL
$$




USA.gov is the U.S. government's official web portal to all federal, state and local government web resources and services.